Weather Roundup
Issued by NWS Springfield, MO

Home | Current Version | Previous Version | Graphics & Text | Print | Product List | Glossary On
Versions: 1 2 3 4 5 6 7 8 9 10 11 12 13 14 15 16 17 18 19 20 21 22 23 24 25 26 27 28 29 30 31 32 33 34 35 36 37 38 39 40 41 42 43 44 45 46 47 48 49 50
000
NZUS99 KSGF 241107
HRRSGF

HOURLY WEATHER
NATIONAL WEATHER SERVICE SPRINGFIELD MO
600 AM CDT THU APR 24 2014

......SGF CWA......

CITY           SKY/WX    TMP DP  RH WIND       PRES   REMARKS
SPRINGFIELD    CLOUDY    62  41  46 SE21      29.73R
JOPLIN         TSTM      64  52  64 SE8       29.67F
WEST PLAINS    MOCLDY    54  37  52 SE7       29.86F
ROLLA          PTCLDY    56  33  42 SE16G24   29.79F
OSAGE BEACH    CLOUDY    59  36  41 S12G18    29.78R
BRANSON        CLOUDY    59  41  51 SE14      29.79F

......SURROUNDING SGF CWA......

CITY           SKY/WX    TMP DP  RH WIND       PRES   REMARKS
CHANUTE        CLOUDY    67  54  63 S14       29.63R
PARSONS        CLOUDY    68  54  60 S10       29.66R
COFFEYVILLE    CLOUDY    70  55  59 S17G32    29.64R
EMPORIA        LGT RAIN  65  57  75 S21G31    29.59R
GROVE OK       CLOUDY    68  50  52 S12G26    29.66S
ROGERS AR      CLOUDY    65  45  48 SE14G23   29.71F
SILOAM SPRINGS CLOUDY    64  46  52 SE23G29   29.68F
HARRISON AR    MOCLDY    57  42  57 SE7       29.81F
NEAR YELLVILLE CLOUDY    54  37  54 CALM      29.84F

......KANSAS AND MISSOURI......

CITY           SKY/WX    TMP DP  RH WIND       PRES   REMARKS
KANSAS CTY INT CLOUDY    64  49  57 SE13      29.64F
DOWNTOWN KC    CLOUDY    64  52  64 E3        29.65S
COLUMBIA       MOCLDY    57  37  47 S15       29.77F
SEDALIA        CLOUDY    62  39  42 S22G28    29.70F
ST JOSEPH      CLOUDY    65  52  62 SE14      29.62F
ST LOUIS       MOCLDY    53  34  48 SE9       29.88F
SPIRIT OF STL  MOCLDY    53  33  46 VRB3      29.86F
KIRKSVILLE     CLOUDY    54  37  52 SE20      29.72F
WICHITA        TSTM      65  59  81 NW15      29.63R
TOPEKA         TSTM      68  58  70 S9        29.62R
OLATHE         CLOUDY    62  48  60 E9        29.65R

......TENNESSEE......

CITY           SKY/WX    TMP DP  RH WIND       PRES   REMARKS
MEMPHIS        PTCLDY    55  39  54 SE3       29.91S
NASHVILLE      PTCLDY    43  39  86 CALM      29.98F

......ARKANSAS.......

CITY           SKY/WX    TMP DP  RH WIND       PRES   REMARKS
FAYETTEVILLE   CLOUDY    63  50  62 S21G29    29.70F
FT SMITH       CLOUDY    60  54  80 NE17      29.73F
LITTLE ROCK    MOCLDY    57  50  77 CALM      29.88R

......OKLAHOMA.......

CITY           SKY/WX    TMP DP  RH WIND       PRES   REMARKS
TULSA          CLOUDY    69  62  78 S23G32    29.63F
PONCA CITY     PTCLDY    68  59  73 S9G18     29.60S
MCALESTER      PTCLDY    67  60  78 S10G18    29.73S
OKLAHOMA CITY  MOCLDY    65  60  84 S20G29    29.63F

......IOWA............

CITY           SKY/WX    TMP DP  RH WIND       PRES   REMARKS
DES MOINES     CLOUDY    51  42  71 SE15G25   29.66F
QUAD CITIES    CLOUDY    46  37  71 SE18G24   29.87F

......ILLINOIS........

CITY           SKY/WX    TMP DP  RH WIND       PRES   REMARKS
QUINCY         PTCLDY    52  35  52 SE15      29.81F
CHICAGO        CLOUDY    41  32  70 E7        30.04F



USA.gov is the U.S. government's official web portal to all federal, state and local government web resources and services.